Regional Weather Roundup
Issued by NWS

Home | Current Version | Previous Version | Text Only | Print | Product List | Glossary On
Versions: 1 2 3 4 5 6 7 8 9 10 11 12 13 14 15 16 17 18 19 20 21 22 23 24 25 26 27 28 29 30 31 32 33 34 35 36 37 38 39 40 41 42 43 44 45 46 47 48 49 50
000
ASUS46 KSTO 250815
RWRCA

NORTHERN AND CENTRAL CA REGIONAL WEATHER ROUNDUP
NATIONAL WEATHER SERVICE SACRAMENTO CA
100 AM PDT MON SEP 25 2017

NOTE: FAIR INDICATES FEW OR NO CLOUDS BELOW 12,000 FEET WITH NO
SIGNIFICANT WEATHER AND/OR OBSTRUCTIONS TO VISIBILITY.

CAZ001-003-250900-
NORTHWEST AREA

CITY           SKY/WX    TMP DP  RH WIND       PRES   REMARKS
CRESCENT CITY  CLEAR     51  50  96 CALM      30.04S
UKIAH          CLEAR     52  41  66 CALM      29.97S
$$

CAZ006-505>513-250900-
BAY AREA

CITY           SKY/WX    TMP DP  RH WIND       PRES   REMARKS
SANTA ROSA     CLEAR     52  40  63 W3        29.92F
SAN RAFAEL     N/A       62  MM  MM MISG
NAPA           CLEAR     49  38  65 CALM      29.93S
CONCORD        CLEAR     61  41  47 S3        29.92F
OAKLAND CITY   N/A      MM  MM  MM MISG
OAKLAND        CLEAR     54  52  93 CALM      29.94S
SAN FRAN CITY  N/A       59  MM  76 MISG
SAN FRAN ARPT  CLEAR     60  51  72 W3        29.93S
LIVERMORE      CLEAR     56  38  50 NE3       29.93F
HAYWARD        CLEAR     59  41  51 CALM      29.94S
REDWOOD CITY   N/A       58  MM  49 MISG
MOFFETT ARPT   CLEAR     62  41  46 CALM      29.94S
SAN JOSE ARPT  CLEAR     62  43  49 CALM      29.94S
$$
CAZ034-037-514>518-250900-
CENTRAL COAST

CITY           SKY/WX    TMP DP  RH WIND       PRES   REMARKS
WATSONVILLE    CLEAR     55  43  63 NW5       29.95S
SALINAS        CLEAR     54  44  69 SE3       29.94S
MONTEREY       CLEAR     59  50  72 E3        29.95F
SAN LUIS OBISP CLEAR     55  44  66 SE3       29.92S
SANTA MARIA    CLEAR     55  40  56 CALM      29.91F
$$
CAZ015-016-250900-
NORTHERN SACRAMENTO VALLEY

CITY           SKY/WX    TMP DP  RH WIND       PRES   REMARKS
REDDING        CLEAR     63  40  42 N5        29.96S
RED BLUFF      CLEAR     65  35  33 NW10      29.94F
OROVILLE       CLEAR     65  36  34 VRB3      29.93F
$$
CAZ016>018-250900-
SOUTHERN SACRAMENTO VALLEY

CITY           SKY/WX    TMP DP  RH WIND       PRES   REMARKS
AUBURN         CLEAR     63 -40   1 E6        29.95S
LINCOLN        FAIR      54  34  47 NW3       29.91R
MARYSVILLE     CLEAR     55  41  59 SE3       29.92S
SAC INTL ARPT  PTCLDY    59  39  47 E5        29.90S
MATHER AIRPORT NOT AVBL
DOWNTOWN SAC   N/A       60  MM  MM MISG
SAC EXEC ARPT  CLEAR     55  43  63 CALM      29.91R
VACAVILLE      CLEAR     58  34  40 W3        29.92S
TRAVIS AFB     CLEAR     55  35  47 W8        29.89S
$$
CAZ019>021-250900-
SAN JOAQUIN VALLEY

CITY           SKY/WX    TMP DP  RH WIND       PRES   REMARKS
STOCKTON       CLEAR     57  36  45 N5        29.90S
MODESTO        CLEAR     60  37  42 E5        29.90S
MERCED         CLEAR     55  40  56 S3        29.91S
LEMOORE        CLEAR     57  31  37 W5        29.93S
FRESNO         CLEAR     62  43  49 CALM      29.93S
HANFORD        CLEAR     62  37  39 NW6       29.93S
PORTERVILLE      N/A     55  40  56 S3        29.94S
BAKERSFIELD    CLEAR     62  37  39 CALM      29.93F
$$
CAZ011-012-071-250900-
NORTHERN MOUNTAINS

CITY           SKY/WX    TMP DP  RH WIND       PRES   REMARKS
YREKA          CLEAR     50  32  50 E5        30.10S
MOUNT SHASTA   CLEAR     43  36  76 CALM      30.11S
ALTURAS        CLEAR     34  28  79 CALM      30.14S
$$
CAZ011-012-071-250900-
SIERRA NEVADA MTNS

CITY           SKY/WX    TMP DP  RH WIND       PRES   REMARKS
BLUE CANYON    CLEAR     52  23  32 E8G17     30.09F
TRUCKEE        CLEAR     30  27  86 CALM      30.16F
TAHOE VLY ARPT CLEAR     32  27  81 CALM      30.15S
MAMMOTH LAKES  FAIR      34  22  61 W9        30.20S WCI  27
$$




USA.gov is the U.S. government's official web portal to all federal, state and local government web resources and services.